This is the latest recevied weather packets stored in our database for station/object R8AHC-W3. If no packets are shown the sender has not sent any weather packets the latest 10 day(s).
| Time | Temp. | Humidity | Pressure | Rain* | Wind** | Luminosity | Snow |
|---|---|---|---|---|---|---|---|
| 1778097422 | 12.22° C | 79% | 1011 hPa | - | 1.79 m/s, 209° | - | - |
| 1778093822 | 12.22° C | 79% | 1012 hPa | - | 1.79 m/s, 209° | - | - |
| 1778090222 | 12.22° C | 79% | 1012 hPa | - | 1.79 m/s, 209° | - | - |
| 1778086622 | 12.22° C | 79% | 1013 hPa | - | 1.79 m/s, 209° | - | - |
| 1778083021 | 18.33° C | 54% | 1012 hPa | - | 3.13 m/s, 176° | - | - |
| 1778079422 | 18.33° C | 54% | 1012 hPa | - | 3.13 m/s, 176° | - | - |
| 1778075822 | 18.33° C | 54% | 1012 hPa | - | 3.13 m/s, 176° | - | - |
| 1778068622 | 21.11° C | 38% | 1012 hPa | - | 4.02 m/s, 190° | - | - |
| 1778065022 | 21.11° C | 38% | 1012 hPa | - | 4.02 m/s, 190° | - | - |
| 1778061422 | 21.11° C | 38% | 1013 hPa | - | 4.02 m/s, 190° | - | - |
| 1778057822 | 21.11° C | 38% | 1013 hPa | - | 4.02 m/s, 190° | - | - |
| 1778054222 | 21.11° C | 38% | 1013 hPa | - | 4.02 m/s, 190° | - | - |
| 1778050623 | 16.67° C | 51% | 1013 hPa | - | 1.79 m/s, 203° | - | - |
| 1778047022 | 16.67° C | 51% | 1013 hPa | - | 1.79 m/s, 203° | - | - |
| 1778043422 | 16.67° C | 51% | 1014 hPa | - | 1.79 m/s, 203° | - | - |
| 1778039822 | 16.67° C | 51% | 1014 hPa | - | 1.79 m/s, 203° | - | - |
| 1778036222 | 9.44° C | 74% | 1014 hPa | - | 1.34 m/s, 259° | - | - |
| 1778032622 | 9.44° C | 74% | 1015 hPa | - | 1.34 m/s, 259° | - | - |
| 1778029022 | 9.44° C | 74% | 1015 hPa | - | 1.34 m/s, 259° | - | - |
| 1778025422 | 9.44° C | 74% | 1015 hPa | - | 1.34 m/s, 259° | - | - |
| 1778021823 | 9.44° C | 74% | 1015 hPa | - | 1.34 m/s, 259° | - | - |
| 1778014622 | 10° C | 73% | 1014 hPa | - | 1.34 m/s, 264° | - | - |
| 1778003823 | 14.44° C | 60% | 1015 hPa | - | 1.79 m/s, 292° | - | - |
| 1778000222 | 14.44° C | 60% | 1015 hPa | - | 1.79 m/s, 292° | - | - |
| 1777996622 | 14.44° C | 60% | 1014 hPa | - | 1.79 m/s, 292° | - | - |
* Rain since midnight (hover to see other rain measurements)
** Current wind speed in m/s (hover to see current wind gust speed)